Mt Hood
Mt. Hood Meadows - Cascade Express
Latest observation 09/01 16:00 PDT
| Time (PDT) | Temp °F 7300' | RH % 7300' | Min mph 7300' | Spd mph 7300' | Gust mph 7300' | Dir ° 7300' |
|---|---|---|---|---|---|---|
| 09/01 16:00 | 51 | 48 | 0 | 12 | 33 | 215 |
| 09/01 15:00 | 51 | 51 | 0 | 11 | 28 | 216 |
| 09/01 14:00 | 57 | 43 | 0 | 8 | 24 | 200 |
| 09/01 13:00 | 58 | 29 | 0 | 7 | 22 | 210 |
| 09/01 12:00 | 61 | 33 | 0 | 6 | 19 | 207 |
| 09/01 11:00 | 65 | 25 | 0 | 5 | 15 | 170 |
| 09/01 10:00 | 59 | 30 | 0 | 3 | 10 | 166 |
| 09/01 09:00 | 59 | 28 | 0 | 1 | 6 | 292 |
| 09/01 08:00 | 52 | 28 | 0 | 0 | 0 | 321 |
| 09/01 07:00 | 50 | 29 | 0 | 0 | 3 | 321 |
| 09/01 06:00 | 49 | 31 | 0 | 0 | 0 | 321 |
| 09/01 05:00 | 51 | 27 | 0 | 0 | 4 | 329 |
| 09/01 04:00 | 49 | 22 | 0 | 0 | 0 | 350 |
| 09/01 03:00 | 53 | 23 | 0 | 1 | 7 | 337 |
| 09/01 02:00 | 54 | 24 | 0 | 4 | 13 | 335 |
| 09/01 01:00 | 54 | 23 | 0 | 5 | 17 | 335 |
| 09/01 00:00 | 53 | 37 | 0 | 2 | 14 | 296 |
| 08/31 23:00 | 52 | 49 | 0 | 0 | 3 | 205 |
| 08/31 22:00 | 52 | 49 | 0 | 0 | 2 | 184 |
| 08/31 21:00 | 53 | 45 | 0 | 0 | 1 | 183 |
| 08/31 20:00 | 55 | 44 | 0 | 1 | 7 | 177 |
| 08/31 19:00 | 56 | 41 | 0 | 1 | 9 | 132 |
| 08/31 18:00 | 59 | 39 | 0 | 4 | 14 | 139 |
| 08/31 17:00 | 60 | 32 | 0 | 4 | 20 | 96 |

